EB1AYW-13 Weather Reports


Display with metric or nautical units.
time (UTC)temp
F
wind
direction
speed
MPH
gust
MPH
rain 1hr
in
rain 24hr
in
rain mn
in
humidity
%
barometer
mb
20260506204749 112 0.0 0.0 0.00 0.00 0.00 11 999.8
20260506203749 114 0.0 0.0 0.00 0.00 0.00 11 999.5
20260506202749 112 0.0 0.0 0.00 0.00 0.00 11 999.7
20260506201749 110 0.0 0.0 0.00 0.00 0.00 11 999.9
20260506200749 112 0.0 0.0 0.00 0.00 0.00 11 999.6
20260506195749 109 0.0 0.0 0.00 0.00 0.00 12 1000.0
20260506194749 106 0.0 0.0 0.00 0.00 0.00 13 1000.3
20260506193749 109 0.0 0.0 0.00 0.00 0.00 12 999.8
20260506192749 111 0.0 0.0 0.00 0.00 0.00 11 999.5
20260506191749 112 0.0 0.0 0.00 0.00 0.00 11 999.3
20260506190749 107 0.0 0.0 0.00 0.00 0.00 12 999.9
20260506185749 110 0.0 0.0 0.00 0.00 0.00 11 999.5
20260506184749 109 0.0 0.0 0.00 0.00 0.00 12 999.6
20260506183749 108 0.0 0.0 0.00 0.00 0.00 11 999.6
20260506182749 105 0.0 0.0 0.00 0.00 0.00 12 1000.2
20260506181749 112 0.0 0.0 0.00 0.00 0.00 11 999.2
20260506180749 105 0.0 0.0 0.00 0.00 0.00 12 1000.3
20260506175749 107 0.0 0.0 0.00 0.00 0.00 12 1000.0
20260506174749 110 0.0 0.0 0.00 0.00 0.00 11 999.7
20260506173749 107 0.0 0.0 0.00 0.00 0.00 12 1000.1
20260506172749 110 0.0 0.0 0.00 0.00 0.00 11 999.7
20260506171749 107 0.0 0.0 0.00 0.00 0.00 12 1000.2
20260506170749 116 0.0 0.0 0.00 0.00 0.00 9 998.9
20260506165749 109 0.0 0.0 0.00 0.00 0.00 11 1000.0
20260506164749 117 0.0 0.0 0.00 0.00 0.00 9 998.8
20260506163749 110 0.0 0.0 0.00 0.00 0.00 10 999.8
20260506162749 111 0.0 0.0 0.00 0.00 0.00 10 999.7
20260506161749 115 0.0 0.0 0.00 0.00 0.00 9 999.1
20260506160749 117 0.0 0.0 0.00 0.00 0.00 8 998.9
20260506155749 114 0.0 0.0 0.00 0.00 0.00 10 999.4
20260506154749 111 0.0 0.0 0.00 0.00 0.00 10 999.8
20260506153749 114 0.0 0.0 0.00 0.00 0.00 9 999.6
20260506152749 104 0.0 0.0 0.00 0.00 0.00 11 1001.1
20260506151749 112 0.0 0.0 0.00 0.00 0.00 10 1000.2
20260506150749 114 0.0 0.0 0.00 0.00 0.00 9 1000.0
20260506145749 107 0.0 0.0 0.00 0.00 0.00 11 1000.9
20260506144749 103 0.0 0.0 0.00 0.00 0.00 12 1001.5
20260506143749 112 0.0 0.0 0.00 0.00 0.00 10 1000.5
20260506142749 101 0.0 0.0 0.00 0.00 0.00 13 1002.1
20260506141749 103 0.0 0.0 0.00 0.00 0.00 12 1001.9
20260506140749 103 0.0 0.0 0.00 0.00 0.00 12 1002.1
20260506135749 109 0.0 0.0 0.00 0.00 0.00 10 1001.3
20260506134749 107 0.0 0.0 0.00 0.00 0.00 11 1001.6
20260506133749 105 0.0 0.0 0.00 0.00 0.00 11 1002.0
20260506132749 114 0.0 0.0 0.00 0.00 0.00 9 1000.8
20260506131749 110 0.0 0.0 0.00 0.00 0.00 10 1001.5
20260506130749 107 0.0 0.0 0.00 0.00 0.00 11 1001.9
20260506125749 114 0.0 0.0 0.00 0.00 0.00 10 1001.1
20260506124750 107 0.0 0.0 0.00 0.00 0.00 11 1002.1
20260506123749 116 0.0 0.0 0.00 0.00 0.00 10 1001.1
20260506122749 116 0.0 0.0 0.00 0.00 0.00 9 1001.1
20260506121749 110 0.0 0.0 0.00 0.00 0.00 10 1002.1
20260506120749 102 0.0 0.0 0.00 0.00 0.00 13 1003.3
20260506115749 104 0.0 0.0 0.00 0.00 0.00 12 1003.2
20260506114749 103 0.0 0.0 0.00 0.00 0.00 13 1003.4
20260506113749 108 0.0 0.0 0.00 0.00 0.00 12 1002.9
20260506112749 109 0.0 0.0 0.00 0.00 0.00 11 1002.7
20260506111749 105 0.0 0.0 0.00 0.00 0.00 12 1003.5
20260506110749 113 0.0 0.0 0.00 0.00 0.00 10 1002.4
20260506105749 96 0.0 0.0 0.00 0.00 0.00 15 1004.8
20260506104749 106 0.0 0.0 0.00 0.00 0.00 12 1003.3
20260506103750 108 0.0 0.0 0.00 0.00 0.00 12 1003.0
20260506102749 105 0.0 0.0 0.00 0.00 0.00 13 1003.4
20260506101749 108 0.0 0.0 0.00 0.00 0.00 12 1003.1
20260506100749 103 0.0 0.0 0.00 0.00 0.00 13 1003.8
20260506095749 111 0.0 0.0 0.00 0.00 0.00 11 1002.6
20260506094749 114 0.0 0.0 0.00 0.00 0.00 10 1002.3
20260506093749 100 0.0 0.0 0.00 0.00 0.00 14 1004.4
20260506092749 102 0.0 0.0 0.00 0.00 0.00 14 1004.1
20260506091749 101 0.0 0.0 0.00 0.00 0.00 14 1004.3
20260506090749 99 0.0 0.0 0.00 0.00 0.00 14 1004.4
20260506085749 98 0.0 0.0 0.00 0.00 0.00 15 1004.6
20260506084749 91 0.0 0.0 0.00 0.00 0.00 19 1005.7
20260506083749 98 0.0 0.0 0.00 0.00 0.00 18 1004.6
20260506082749 98 0.0 0.0 0.00 0.00 0.00 17 1004.6
20260506081749 92 0.0 0.0 0.00 0.00 0.00 19 1005.6
20260506080749 101 0.0 0.0 0.00 0.00 0.00 17 1004.2
20260506072749 94 0.0 0.0 0.00 0.00 0.00 19 1005.1
20260506071749 95 0.0 0.0 0.00 0.00 0.00 19 1005.0
20260506070749 94 0.0 0.0 0.00 0.00 0.00 20 1005.4
20260506061749 111 0.0 0.0 0.00 0.00 0.00 12 1002.8
20260506060749 115 0.0 0.0 0.00 0.00 0.00 12 1002.4
20260506050749 91 0.0 0.0 0.00 0.00 0.00 21 1005.4
20260506044750 97 0.0 0.0 0.00 0.00 0.00 17 1004.4
20260506043749 87 0.0 0.0 0.00 0.00 0.00 22 1006.2
20260506042749 99 0.0 0.0 0.00 0.00 0.00 16 1004.2
20260506041749 93 0.0 0.0 0.00 0.00 0.00 18 1005.2
20260506040749 98 0.0 0.0 0.00 0.00 0.00 17 1004.7
20260506035749 100 0.0 0.0 0.00 0.00 0.00 16 1004.3
20260506034749 101 0.0 0.0 0.00 0.00 0.00 15 1004.2
20260506033749 100 0.0 0.0 0.00 0.00 0.00 16 1004.4
20260506032749 97 0.0 0.0 0.00 0.00 0.00 17 1004.8
20260506031749 97 0.0 0.0 0.00 0.00 0.00 17 1004.8
20260506030749 95 0.0 0.0 0.00 0.00 0.00 19 1005.0
20260506025749 91 0.0 0.0 0.00 0.00 0.00 21 1005.7
20260506024749 94 0.0 0.0 0.00 0.00 0.00 18 1005.3
20260506023749 94 0.0 0.0 0.00 0.00 0.00 19 1005.2
20260506022749 86 0.0 0.0 0.00 0.00 0.00 23 1006.4
20260506021749 92 0.0 0.0 0.00 0.00 0.00 20 1005.6
20260506020749 91 0.0 0.0 0.00 0.00 0.00 20 1005.8
20260506015749 98 0.0 0.0 0.00 0.00 0.00 18 1004.8
20260506014749 95 0.0 0.0 0.00 0.00 0.00 19 1005.4
20260506013749 97 0.0 0.0 0.00 0.00 0.00 18 1005.0
20260506012749 92 0.0 0.0 0.00 0.00 0.00 20 1005.7
20260506011749 95 0.0 0.0 0.00 0.00 0.00 19 1005.5
20260506010749 103 0.0 0.0 0.00 0.00 0.00 16 1004.5
20260506005749 98 0.0 0.0 0.00 0.00 0.00 18 1005.2
20260506004749 93 0.0 0.0 0.00 0.00 0.00 20 1006.0
20260506003749 95 0.0 0.0 0.00 0.00 0.00 20 1005.8
20260506002749 90 0.0 0.0 0.00 0.00 0.00 21 1006.5
20260506001749 92 0.0 0.0 0.00 0.00 0.00 21 1006.3
20260506000749 96 0.0 0.0 0.00 0.00 0.00 20 1005.8
20260505235749 97 0.0 0.0 0.00 0.00 0.00 18 1005.5
20260505234749 94 0.0 0.0 0.00 0.00 0.00 20 1006.0
20260505233749 98 0.0 0.0 0.00 0.00 0.00 18 1005.4
20260505232749 96 0.0 0.0 0.00 0.00 0.00 19 1005.8
20260505231749 94 0.0 0.0 0.00 0.00 0.00 20 1006.2
20260505230749 98 0.0 0.0 0.00 0.00 0.00 18 1005.6
20260505225749 98 0.0 0.0 0.00 0.00 0.00 19 1005.6
20260505224749 102 0.0 0.0 0.00 0.00 0.00 17 1005.0
20260505223749 99 0.0 0.0 0.00 0.00 0.00 18 1005.6
20260505222749 101 0.0 0.0 0.00 0.00 0.00 17 1005.3
20260505221749 87 0.0 0.0 0.00 0.00 0.00 24 1007.4
20260505220749 100 0.0 0.0 0.00 0.00 0.00 18 1005.4
20260505215749 95 0.0 0.0 0.00 0.00 0.00 20 1006.2
20260505214749 97 0.0 0.0 0.00 0.00 0.00 19 1005.8
20260505213749 92 0.0 0.0 0.00 0.00 0.00 21 1006.5
20260505212749 94 0.0 0.0 0.00 0.00 0.00 20 1006.3
20260505211749 99 0.0 0.0 0.00 0.00 0.00 18 1005.4
20260505210749 94 0.0 0.0 0.00 0.00 0.00 20 1006.2
20260505205749 95 0.0 0.0 0.00 0.00 0.00 19 1006.1